AQI (46)

Current Conditions for Foresthill, CA. Sunny, Dry   
Visibility: 10 miles
Space WX Alerts: EXTENDED WARNING:  Geomagnetic K-index of 4 expected ( Latest Alert ) - Issue Time: 2019 Sep 17 2228 UTC

  Summary / Temperature 

Current Temperature
57.7°F
14.3°C
(24/hr Ago)
59.7°F
(Apparent temp)
54.9°F
Cool
Wind Chill Graphs
55.1°F 

57.9°F/ 14.4°C
 --- Virtual Temp: 59.7°F ---

 Temp Rate:

 24/hr Difference:

 Avg Running Temp:

 Todays High:

 Todays Low:

 Y-days High:

 Y-days Low:

 Todays WChill:

 Y-days WChill:

 Evapotranspiration:

-0.4°F/hr 

-2°F

57.9°F

61.2°F 12:00am

57.7°F 6:28am

75.9°F 12:17pm

59.6°F 7:30am

54.3°F 6:37am

56.3°F 7:47am

0.006 in

115' Above Ground

 Temperature:

 6'AGL VRS 115'AGL:

 Avg Running Temp:

 Humidity:

 Todays High:

 Todays Low:

 Y-days High:

 Y-days Low:

60.0°F 

+2.3°F

60.1°F

53% 

63.0°F 12:00am

60.0°F 3:33am

75.0°F 11:51am

62.0°F 4:54am

Temp & Humidity Graphs

  Wind 

Wind Speed

 2.0 mph

Gusting to

 15.0 mph

Wind from E

96°  E

Light air

 Avg speed:

 Wind Run:

 Peak Gust:

  3.0 mph 

24.0 miles

  20.0 mph 3:10am

  Almanac  

Moon age: 23 days,16 hours,19 minutes,34%

Waning Crescent
34%
Illuminated
23 days in cycle

 Moonrise:

 Moonset:

 Sunrise:

 Sunset:

 Solar Noon:

12:42am

3:53pm

6:53am

7:00pm

12:56pm

2min 36s less daylight tomorrow 

  Solar Radiation 

(Current Solar)
  47 W/m2 (98%)
(Todays High)
 47 W/m2@7:24am
Feels like: 59°F in the sun

Rain

 Rain Today:

 Rain Rate (/hr):

 Rain last hour:

 Rain Yesterday:

 This Month:

 Season Total:

3 Days Since Last Rain Day

0.00 in

0.000 in

0.00 in

0.00 in

1.43 in

1.44 in

Updated Time

Updated: 9/23/19  7:25am

(Updated  sec ago)

Humidity & Barometer

 Humidity:

 Wetbulb:

 Dew Point:

 Barometer:

63% 

51.3°F 

45.2°F 

29.933 inHg 

 Baro Trend:  Rising Slowly 
Northern Calif
Preparedness
Fire 
Level 

    UV Index  

(Current UV)
0.0  None
(Todays High) @ 12:00am
0.0   None

National Weather Service Forecast

Today

Today: Sunny
Sunny
Tonight

Tonight: Clear
Clear
Tuesday

Tuesday: Sunny
Sunny
Tuesday
Night
Tuesday Night: Mostly Clear
Mostly Clear
Wednesday

Wednesday: Sunny
Sunny
Wednesday
Night
Wednesday Night: Mostly Clear
Mostly Clear
Hi 76 °F Lo 61 °F Hi 87 °F ↓ Lo 65 °F Hi 86 °F Lo 65 °F

Foresthill Probe 2 Stats  
Foresthill Probe 2: is located on Thomas Street
at 3000 feet. The main Foresthill Weather site
is located on Melody ln at the 2860 foot elevation

Calm
55.4°F
13°C
Temp Rate:
-0.5°F
Calm
Gusting to
2.0 mph
(Humidity)
69%
Wind from ESE
123°  ESE
Updated: 23/09/19 - 07:27:50
 Todays High: 60.0°F 00:00
 Todays Low: 55.0°F 06:55
 Rain Today: 0.00 in
 Season Total: 1.41 in

Foresthill Wx: Monthly,Yearly, Highs and Lows 

Foresthill  
This Weather Data is coming from the main Foresthill
Weather site located on Melody ln at the 2860 foot
elevation
Not Foresthill Probe 2
Weather Data
Month
  High
Month
  Low
Year
High
Year
Low
Temp 91.1°F
9/14/19
47.0°F
9/17/19
92.2°F
8/16/19
24.5°F
2/18/19
Humidity 100%
9/19/19
15%
9/13/19
100%
1/9/19
14%
4/22/19
Heat Index 88.1°F
9/2/19
51.8°F
9/17/19
90.8°F
7/27/19
30.1°F
2/22/19
Wind Chill 91.1°F
9/14/19
40.3°F
9/17/19
92.2°F
8/16/19
11.5°F
2/11/19
Wind Gust 26 mph
9/16/19
0 mph
9/1/19
48 mph
2/27/19
0 mph
1/1/19
Barometer 30.12 in
9/17/19
29.75 in
9/15/19
30.54 in
1/23/19
29.37 in
2/14/19
ET 0.22 in
9/14/19
0.00 in
9/1/19
0.27 in
6/9/19
0.00 in
1/1/19
Dew Point 60.9°F
9/5/19
27.5°F
9/5/19
66.8°F
6/17/19
7.7°F
1/1/19
Visible Satellite Pacific Satellite US Radar Satellite Imagery Sacramento,CA.  (click to enlarge)
NWS Weather Forecast - Summary
Updated: Monday, Sepember 23, 2019 - 3:30am PDT
RED FLAG WARNING IN EFFECT IN EFFECT FROM 1 PM THIS AFTERNOON TO 11 AM PDT WEDNESDAY FOR FIRE WEATHER ZONES 213, 215, 216, 217, 218, 263, 279, AND 264 RED FLAG WARNING IN EFFECT FROM 11 PM THIS EVENING TO 11 AM PDT WEDNESDAY FOR FIRE WEATHER ZONES 266, 267, 220, 221, 268, AND 269 FOR ELEVATIONS BELOW 5000 FEET
Current Interstate Highway Conditions for I-80 & US-50

[I 80: IN THE SAN FRANCISCO BAY AREA - SOLANO CO]
no traffic restrictions are reported for this area.

[I 80: IN THE NORTHERN CALIFORNIA AREA & SIERRA NEVADA]
no traffic restrictions are reported for this area.

[US 50: IN THE SACRAMENTO VALLEY & THE LAKE TAHOE BASIN]
no traffic restrictions are reported for this area.
NWS Weather Forecast: Today and Tonight (Updated: Mon, 23-Sep-2019 3:03am PDT)
Today

Today: Sunny
Sunny

Hi 76 °F
NWS forecast: Sunny, with a high near 76. Northeast wind 5 to 12 mph, with gusts as high as 20 mph.
Tonight

Tonight: Clear
Clear

Lo 61 °F
NWS forecast: Clear, with a low around 61. Northeast wind 6 to 12 mph, with gusts as high as 23 mph.
YR.NO 10 Day Weather forecast
Last update: 09/23/2019 @ 00:34
Next update: 09/23/2019 @ 13:00
Provided by: 22
      Temperature Precipitation Pressure Wind  
Today
09/23/2019
05:00 06:00 50°F   29.90 inHg Light breeze from east-northeast 6 mph
  06:00 12:00 48°F   29.91 inHg Light breeze from east-northeast 6 mph
  12:00 18:00 75°F   29.93 inHg Light breeze from north-northeast 5 mph
  18:00 00:00 73°F   29.92 inHg Light breeze from west-northwest 4 mph
    (Click to enlarge)
meteogram

    Forecast for next 9 days

      Temperature Precip Pressure Wind  
Tuesday
09/24/2019
00:00 06:00 61°F   29.99 inHg Gentle breeze from east-northeast 8 mph
  06:00 12:00 61°F   30.00 inHg Gentle breeze from east-northeast 9 mph
  12:00 18:00 86°F   29.95 inHg Light air from west-northwest 1 mph
  18:00 00:00 79°F   29.86 inHg Light air from west-northwest 2 mph
      Temperature Precip Pressure Wind  
Wednesday
09/25/2019
00:00 06:00 68°F   29.84 inHg Gentle breeze from east-northeast 8 mph
  06:00 12:00 64°F   29.82 inHg Light breeze from east-northeast 5 mph
  12:00 18:00 86°F   29.80 inHg Light air from south 2 mph
  17:00 23:00 84°F   29.73 inHg Light breeze from west 5 mph
  23:00 05:00 63°F   29.81 inHg Light breeze from east-northeast 7 mph
      Temperature Precip Pressure Wind  
Thursday
09/26/2019
05:00 11:00 59°F   29.81 inHg Light breeze from east-northeast 6 mph
  11:00 17:00 77°F   29.90 inHg Light breeze from south-southwest 6 mph
  17:00 23:00 75°F   29.84 inHg Light breeze from south-southwest 5 mph
  23:00 05:00 61°F   29.90 inHg Light breeze from east-southeast 5 mph
      Temperature Precip Pressure Wind  
Friday
09/27/2019
05:00 11:00 55°F   29.88 inHg Light breeze from southeast 5 mph
  11:00 17:00 68°F   29.89 inHg Light breeze from south-southwest 6 mph
  17:00 23:00 68°F   29.77 inHg Light breeze from south-southwest 6 mph
  23:00 05:00 55°F   29.73 inHg Light breeze from southeast 7 mph
      Temperature Precip Pressure Wind  
Saturday
09/28/2019
05:00 11:00 50°F   29.71 inHg Light breeze from south-southeast 7 mph
  11:00 17:00 55°F   29.74 inHg Light breeze from southwest 7 mph
  17:00 23:00 59°F   29.68 inHg Light breeze from west-northwest 7 mph
  23:00 05:00 43°F   29.74 inHg Light breeze from east-northeast 5 mph
      Temperature Precip Pressure Wind  
Sunday
09/29/2019
05:00 11:00 39°F   29.75 inHg Light breeze from east-northeast 4 mph
  11:00 17:00 55°F   29.82 inHg Light breeze from southwest 6 mph
  17:00 23:00 55°F   29.78 inHg Light breeze from west-southwest 6 mph
  23:00 05:00 37°F   29.83 inHg Light breeze from east 4 mph
      Temperature Precip Pressure Wind  
Monday
09/30/2019
05:00 11:00 34°F   29.85 inHg Light breeze from east-northeast 5 mph
  11:00 17:00 55°F   29.94 inHg Light breeze from southwest 5 mph
  17:00 23:00 55°F   29.95 inHg Light breeze from west-southwest 4 mph
  23:00 05:00 39°F   30.02 inHg Light breeze from east-northeast 6 mph
      Temperature Precip Pressure Wind  
Tuesday
10/01/2019
05:00 11:00 41°F   30.03 inHg Gentle breeze from east-northeast 8 mph
  11:00 17:00 64°F   30.02 inHg Light breeze from east-northeast 4 mph
  17:00 23:00 66°F   29.95 inHg Light breeze from west-northwest 5 mph
  23:00 05:00 52°F   29.97 inHg Gentle breeze from east-northeast 10 mph
      Temperature Precip Pressure Wind  
Wednesday
10/02/2019
05:00 11:00 48°F   29.96 inHg Gentle breeze from east-northeast 9 mph
  11:00 17:00 72°F   29.94 inHg Light air from south-southwest 2 mph

NOAA Local Storm Report
3 MILES NORTHWEST OF BIG BEND   ( More )
DATE
09/18/2019
TIME
7:00 PM
COUNTY
BUTTE
STATE
CA
GEOGRAPHIC
39.74N 121.50W
SOURCE
DEPT OF HIGHWAYS
DEBRIS FLOW
minor debris flows and rock slides blocked highway 70 on wednesday from 7 pm pdt to midnight from jarbo gap to greenville wye (junction of sr 70 and sr 89). Road culverts were also blocked with debris, requiring lane closures for cleanup today. Debris was associated with camp fire burned area.
How Close Are We To this Month's Temperature Record ?
Updated Monday, Sep 23, 2019- 7:25:00 AM

Current Temperature: 57.7°F

September's High: Temperature Record 95.9°F - Set on Wed, Sep 9, 2015 - 1:44:00 PM
We are currently 38.2°F Less than this Month's record High

September's Low: Temperature Record 44.1°F - Set on Sun, Sep 22, 2013 - 7:41:00 AM
We are currently 13.6°F More than this Month's record Low

Weather History For Monday, September 23, 2019


On this Day - In Weather History ...
Data courtesy of weatherforyou.com
powered by Cumulus v1.9.3 (1059)
Ambient Weather VWS v14.00
Top Contact Website Map Copyright © 2007 - 2019 Foresthillweather.com Never base important decisions on this or any weather information obtained from the Internet